STARLINK-11548, 62829

Orbit data source: Space-Track

STARLINK-11548, 62829 is a payload satellite owned by SpaceX/Seattle (US) in LEO that was launched on Mon, 27 Jan 2025 UTC via an FALCON 9 launch vehicle from the Air Force Eastern Test Range (AFETR). Payload-class satellites include a variety of spacecraft equipped with specific instruments for various scientific and technological missions. These include communications satellites like Starlink; space stations such as the ISS; scientific satellites like the Hubble; Earth observation satellites from companies like Planet Labs, Umbra, and HawkEye 360; GPS; miniature CubeSats for education and research; and military/defense satellites.

Loading next visibility...
Identifier
62829, 2025-019A
Orbit
LEO
Last TLE update
10 hours ago
Origin
Manufacturer
SpaceX/Seattle
Mission
Operational Commercial Communications
Bus & Motor
STARLINK V2M, Unknown motor
Mass
730 kg wet, ~700 kg dry
Launch date (UTC)
2025-01-27 (3 months ago)
Launch vehicle
FALCON 9
Launch site
Air Force Eastern Test Range (AFETR)
Object type
Payload
Rocket body
Debris
Shape & HBR
Box + 2 Pan, 29 m
Radar Cross Section
36.964 m², Large (>1 m²)

Expand to show TLE details & history

TLE from 10 hours ago
0 STARLINK-11548
1 62829U 25019A   25128.80614784  .00000166  00000-0  47864-5 0  9997
2 62829  43.0000 343.4405 0001337 278.1174  81.9542 15.70830990 15932
Epoch: 2025-05-08T19:20Z
Definitive object data (Epoch: 2025-05-08T19:20:51.173Z)
Latitude
-0.00001°
Longitude
-173.64409°
Altitude
356.166 km
Speed
7.697 km/s
True Right ascension
22h 53m 45s
True Declination
0° 00' 00"
Sunlit
Object was in daylight at TLE epoch
Visualization TLE readout
Latitude
1.83155°
Longitude
1.91242°
Altitude
356.285 km
Speed
7.697 km/s
Apparent Right ascension
07h 29m 15s
Apparent Declination
-40° 34' 40"
Sunlit
Object is in full shadow
Visualization observer readout
Local Sidereal Time
13:23:54
Azimuth
236.099° WSW
Elevation
-23.818°
Doppler factor
1
Orbital elements
Apogee altitude
359.403 km
Perigee altitude
357.602 km
Semi-major axis
6,736.639 km
Eccentricity
0.0001337
Inclination
43°
RAAN
343.4405°
Arg. of periapsis
278.1174°
True anomaly
81.96937°
Mean anomaly
81.9542°
Eccentric anomaly
81.96179°
Mean motion
3.92535 °/min
BSTAR
0.0000047864
Orbital period
91.71 mins
Loading maneuver chart data...
Loading SW <> Apogee altitude chart data...
Loading historical data...
Loading historical data...
Loading historical data...
Loading historical data...
Loading historical data...
Loading historical data...
Loading historical data...

STARLINK-11548 Visibility forecast

Observer location: undefined°, undefined°

Span
Click to sort rows by Start time (UTC) header in descending order
Start Az.
Max El. time (UTC)
Max El. Az.
Max El.
End time (UTC)
End Az.
4 mins2025-05-09 18:30:16.472Z249.917° W2025-05-09 18:32:16.472Z75.813° E42.793°2025-05-09 18:34:16.472Z72.138° E
4 mins2025-05-09 21:43:16.472Z296.803° NW2025-05-09 21:44:16.472Z331.489° NNW42.543°2025-05-09 21:47:16.472Z101.006° ESE
|